Middleton, WI

1:17 PM CST on February 06, 2016 (GMT -0600)
Middleton

Weather History for KC29 - April, 2013

Change the Weather History Date:

Wednesday, April 24, 2013

  Actual Average (KMSN) Record (KMSN)
Temperature  
Mean Temperature 43 °F 50 °F  
Max Temperature 54 °F 61 °F 85 °F (1990)
Min Temperature 33 °F 39 °F 21 °F (1910)
Degree Days  
Heating Degree Days 22 15  
Month to date heating degree days 474  
Since 1 July heating degree days 6923  
Cooling Degree Days 0 0  
Month to date cooling degree days 0  
Year to date cooling degree days 0  
Moisture  
Dew Point 23 °F    
Average Humidity 47    
Maximum Humidity 72    
Minimum Humidity 24    
Precipitation  
Precipitation 0.00 in 0.11 in 1.56 in (1955)
Month to date precipitation 2.70  
Year to date precipitation 7.58  
Snow  
Snow 0.00 in 0.10 in 0.40 in (1910)
Month to date snowfall 2.4  
Since 1 July snowfall 50.5  
Snow Depth -    
Sea Level Pressure  
Sea Level Pressure 30.01 in    
Wind  
Wind Speed 8 mph (WNW)    
Max Wind Speed 20 mph    
Max Gust Speed 25 mph    
Visibility 10 miles    
Events      
T = Trace of Precipitation, MM = Missing Value Source: NWS Daily Summary

Daily Weather History Graph

Daily Weather History Graph

Search for Another Location

Airport or City:

Trip Planner

Search our weather history database for the weather conditions in past years. The results will help you decide how hot, cold, wet, or windy it might be!

Date:

Astronomy

Apr. 24, 2013 Rise Set
Actual Time 6:01 AM CDT 7:51 PM CDT
Civil Twilight 5:31 AM CDT 8:22 PM CDT
Nautical Twilight 4:54 AM CDT 8:59 PM CDT
Astronomical Twilight 4:14 AM CDT 9:39 PM CDT
Moon 6:54 PM CDT (4/24) 5:07 AM CDT (4/24)
Length of Visible Light 14h 51m
Length of Day
13h 50m
Waxing Gibbous, 98% of the Moon is Illuminated
Apr 24
Waxing Gibbous
Apr 25
Full
May 2
Last Quarter
May 9
New
May 17
First Quarter

Hourly Weather History & Observations

Time (CDT) Temp. Windchill Dew Point Humidity Pressure Visibility Wind Dir Wind Speed Gust Speed Precip Events Conditions
12:15 AM 38.3 °F 31.4 °F 26.4 °F 62% 30.00 in 10.0 mi NNW 10.4 mph - N/A   Mostly Cloudy
12:35 AM 38.1 °F 32.3 °F 26.8 °F 64% 30.00 in 10.0 mi NNW 8.1 mph - N/A   Scattered Clouds
12:55 AM 37.8 °F 31.8 °F 26.2 °F 63% 30.01 in 10.0 mi NNW 8.1 mph - N/A   Clear
1:15 AM 37.4 °F 31.4 °F 25.3 °F 62% 30.00 in 10.0 mi NNW 8.1 mph - N/A   Clear
1:35 AM 37.0 °F 31.6 °F 25.5 °F 63% 30.00 in 10.0 mi NNW 6.9 mph - N/A   Clear
1:55 AM 36.5 °F 31.8 °F 26.1 °F 66% 30.00 in 10.0 mi NW 5.8 mph - N/A   Clear
2:15 AM 36.1 °F 30.6 °F 26.4 °F 68% 30.00 in 10.0 mi NNW 6.9 mph - N/A   Clear
2:35 AM 35.6 °F 31.7 °F 26.2 °F 69% 30.00 in 10.0 mi NW 4.6 mph - N/A   Clear
2:55 AM 35.6 °F 30.7 °F 25.9 °F 68% 29.97 in 10.0 mi NNW 5.8 mph - N/A   Clear
3:15 AM 35.1 °F 29.3 °F 26.2 °F 70% 30.00 in 10.0 mi NW 6.9 mph - N/A   Clear
3:35 AM 34.9 °F 30.8 °F 26.2 °F 71% 29.99 in 10.0 mi NW 4.6 mph - N/A   Clear
3:55 AM 34.7 °F 28.8 °F 26.6 °F 72% 29.99 in 10.0 mi NW 6.9 mph - N/A   Clear
4:15 AM 34.7 °F 28.1 °F 26.2 °F 71% 29.99 in 10.0 mi NW 8.1 mph - N/A   Clear
4:35 AM 34.7 °F 29.6 °F 26.4 °F 72% 30.00 in 10.0 mi NW 5.8 mph - N/A   Clear
4:55 AM 34.7 °F 29.6 °F 25.5 °F 69% 30.00 in 10.0 mi WNW 5.8 mph - N/A   Clear
5:15 AM 34.0 °F 31.0 °F 25.7 °F 72% 30.00 in 10.0 mi WNW 3.5 mph - N/A   Clear
5:55 AM 34.2 °F 29.0 °F 25.9 °F 72% 30.00 in 10.0 mi WNW 5.8 mph - N/A   Clear
6:15 AM 33.8 °F 29.6 °F 25.7 °F 72% 30.01 in 10.0 mi WNW 4.6 mph - N/A   Clear
6:35 AM 33.8 °F 29.6 °F 25.7 °F 72% 30.02 in 10.0 mi WNW 4.6 mph - N/A   Clear
6:55 AM 34.5 °F 30.4 °F 25.5 °F 70% 30.02 in 10.0 mi WNW 4.6 mph - N/A   Clear
7:15 AM 34.7 °F - 25.7 °F 70% 30.02 in 10.0 mi Calm Calm - N/A   Clear
7:35 AM 34.9 °F 30.8 °F 25.9 °F 70% 30.03 in 10.0 mi WNW 4.6 mph - N/A   Clear
7:55 AM 35.1 °F 30.1 °F 26.2 °F 70% 30.04 in 10.0 mi WNW 5.8 mph - N/A   Clear
8:15 AM 36.9 °F 31.4 °F 24.6 °F 61% 30.04 in 10.0 mi WNW 6.9 mph - N/A   Clear
8:35 AM 38.1 °F 32.3 °F 23.2 °F 55% 30.03 in 10.0 mi NW 8.1 mph - N/A   Clear
8:55 AM 39.6 °F 33.5 °F 23.7 °F 53% 30.03 in 10.0 mi NW 9.2 mph - N/A   Clear
9:15 AM 40.6 °F 34.8 °F 24.6 °F 53% 30.03 in 10.0 mi WNW 9.2 mph - N/A   Clear
9:35 AM 41.7 °F 35.6 °F 24.1 °F 50% 30.03 in 10.0 mi NW 10.4 mph - N/A   Clear
9:55 AM 42.3 °F 37.3 °F 22.1 °F 45% 30.03 in 10.0 mi WNW 8.1 mph - N/A   Clear
10:15 AM 43.5 °F 37.5 °F 21.2 °F 41% 30.03 in 10.0 mi NW 11.5 mph - N/A   Clear
10:35 AM 44.1 °F 39.0 °F 19.9 °F 38% 30.03 in 10.0 mi NNW 9.2 mph 16.1 mph N/A   Clear
10:55 AM 44.2 °F 38.0 °F 20.3 °F 39% 30.03 in 10.0 mi WNW 12.7 mph - N/A   Clear
11:15 AM 46.0 °F 41.4 °F 19.2 °F 34% 30.03 in 10.0 mi NNW 9.2 mph - N/A   Clear
11:35 AM 46.6 °F - 18.3 °F 32% 30.02 in 10.0 mi WNW 9.2 mph 16.1 mph N/A   Clear
11:55 AM 46.6 °F - 18.7 °F 33% 30.02 in 10.0 mi NW 12.7 mph - N/A   Clear
12:15 PM 47.3 °F - 17.6 °F 31% 30.01 in 10.0 mi WNW 8.1 mph - N/A   Clear
12:35 PM 48.6 °F - 16.9 °F 28% 30.01 in 10.0 mi WSW 9.2 mph 17.3 mph N/A   Clear
12:55 PM 49.5 °F - 17.8 °F 29% 30.01 in 10.0 mi WNW 12.7 mph 17.3 mph N/A   Clear
1:15 PM 49.6 °F - 18.9 °F 30% 30.01 in 10.0 mi NW 8.1 mph 18.4 mph N/A   Clear
1:35 PM 50.4 °F - 17.8 °F 28% 30.01 in 10.0 mi West 6.9 mph 19.6 mph N/A   Clear
1:55 PM 50.5 °F - 16.7 °F 26% 30.01 in 10.0 mi WNW 13.8 mph 20.7 mph N/A   Clear
2:15 PM 50.9 °F - 16.3 °F 25% 30.00 in 10.0 mi West 4.6 mph - N/A   Clear
2:35 PM 51.6 °F - 17.1 °F 26% 30.00 in 10.0 mi West 10.4 mph 17.3 mph N/A   Clear
2:55 PM 52.5 °F - 17.4 °F 25% 30.00 in 10.0 mi WSW 5.8 mph 21.9 mph N/A   Clear
3:15 PM 52.7 °F - 19.0 °F 27% 30.00 in 10.0 mi West 16.1 mph 19.6 mph N/A   Clear
3:35 PM 53.2 °F - 19.8 °F 27% 30.00 in 10.0 mi West 17.3 mph 20.7 mph N/A   Scattered Clouds
3:55 PM 53.6 °F - 18.7 °F 25% 30.00 in 10.0 mi WSW 11.5 mph 18.4 mph N/A   Clear
4:15 PM 53.6 °F - 17.8 °F 24% 30.00 in 10.0 mi West 11.5 mph 19.6 mph N/A   Clear
4:35 PM 53.6 °F - 17.4 °F 24% 30.00 in 10.0 mi WNW 10.4 mph 18.4 mph N/A   Clear
4:55 PM 53.6 °F - 18.3 °F 25% 29.99 in 10.0 mi WNW 12.7 mph 20.7 mph N/A   Clear
5:15 PM 53.6 °F - 16.9 °F 24% 29.99 in 10.0 mi West 12.7 mph 17.3 mph N/A   Clear
5:35 PM 52.9 °F - 18.1 °F 26% 29.99 in 10.0 mi WNW 12.7 mph - N/A   Clear
5:55 PM 52.0 °F - 20.1 °F 29% 29.99 in 10.0 mi West 9.2 mph 18.4 mph N/A   Scattered Clouds
6:15 PM 51.3 °F - 19.9 °F 29% 29.99 in 10.0 mi West 12.7 mph 19.6 mph N/A   Scattered Clouds
6:35 PM 51.1 °F - 20.3 °F 30% 30.00 in 10.0 mi West 12.7 mph - N/A   Scattered Clouds
6:55 PM 51.3 °F - 20.8 °F 30% 30.00 in 10.0 mi WSW 12.7 mph - N/A   Scattered Clouds
7:15 PM 50.9 °F - 21.2 °F 31% 30.00 in 10.0 mi WSW 13.8 mph - N/A   Mostly Cloudy
7:35 PM 49.3 °F - 21.9 °F 34% 30.00 in 10.0 mi WSW 11.5 mph - N/A   Scattered Clouds
7:55 PM 48.7 °F - 22.1 °F 35% 30.00 in 10.0 mi SW 6.9 mph - N/A   Scattered Clouds
8:15 PM 48.2 °F - 22.5 °F 36% 30.00 in 10.0 mi SW 8.1 mph - N/A   Clear
8:35 PM 47.7 °F - 23.0 °F 38% 30.01 in 10.0 mi SW 5.8 mph - N/A   Scattered Clouds
8:55 PM 46.8 °F - 23.9 °F 41% 30.01 in 10.0 mi SW 8.1 mph - N/A   Mostly Cloudy
10:15 PM 45.9 °F 40.8 °F 25.5 °F 45% 30.00 in 10.0 mi SSW 10.4 mph - N/A   Scattered Clouds
10:35 PM 45.7 °F 40.6 °F 25.9 °F 46% 30.00 in 10.0 mi SSW 10.4 mph - N/A   Scattered Clouds
10:55 PM 46.2 °F 41.7 °F 25.9 °F 45% 30.01 in 10.0 mi SW 9.2 mph 18.4 mph N/A   Mostly Cloudy
11:15 PM 47.3 °F - 24.6 °F 41% 30.00 in 10.0 mi SW 13.8 mph 25.3 mph N/A   Overcast
11:35 PM 46.8 °F - 25.3 °F 43% 30.00 in 10.0 mi WSW 12.7 mph - N/A   Overcast
11:55 PM 45.9 °F 38.3 °F 29.7 °F 53% 30.00 in 10.0 mi West 19.6 mph 25.3 mph N/A   Overcast